Location: Wawayanda State Park
(41.1833°N, 74.4333°W)
Time: 09:37:58
(UTC-04:00)

Landsat 7 - Visible Passes

Search period start: 04 July 2015 00:00
Search period end: 14 July 2015 00:00
Orbit: 701 x 703 km, 98.2° (Epoch: 04 July)

Date Brightness Start Highest point End Pass type
(mag) Time Alt. Az. Time Alt. Az. Time Alt. Az.
04 Jul 6.3 00:09:34 10° WSW 00:11:04 11° W 00:12:15 10° WNW visible
04 Jul 5.3 21:34:41 11° ESE 21:37:57 22° ENE 21:41:38 10° NNE visible
04 Jul 4.8 23:13:34 28° SW 23:15:30 40° W 23:19:58 10° NNW visible
05 Jul 4.0 22:17:59 26° SE 22:20:29 56° ENE 22:25:09 10° N visible
05 Jul 6.0 23:56:52 13° WSW 23:58:41 15° W 00:01:18 10° NW visible
06 Jul 5.6 21:22:52 10° ESE 21:25:51 17° ENE 21:29:00 10° NNE visible
06 Jul 4.3 23:01:16 32° SSW 23:03:14 53° W 23:07:54 10° NNW visible
07 Jul 4.4 22:05:41 22° SE 22:08:19 42° ENE 22:12:50 10° N visible
07 Jul 5.7 23:44:34 17° WSW 23:46:19 20° W 23:49:44 10° NW visible
08 Jul 5.9 21:11:39 10° E 21:13:46 13° ENE 21:16:08 10° NNE visible
08 Jul 3.9 22:48:58 34° S 22:51:01 72° WSW 22:55:47 10° NNW visible
09 Jul 4.8 21:53:23 18° ESE 21:56:11 32° ENE 22:00:26 10° N visible
09 Jul 5.4 23:32:16 21° SW 23:33:59 26° W 23:37:57 10° NW visible
10 Jul 6.1 21:01:31 10° ENE 21:01:43 10° ENE 21:02:12 10° NE visible
10 Jul 3.7 22:36:40 33° SSE 22:38:48 86° ENE 22:43:35 10° NNW visible
11 Jul 5.2 21:41:05 14° ESE 21:44:03 25° ENE 21:47:57 10° NNE visible
11 Jul 5.0 23:19:58 27° SW 23:21:41 34° W 23:26:01 10° NNW visible
12 Jul 3.9 22:24:23 30° SE 22:26:37 65° ENE 22:31:21 10° N visible
13 Jul 6.2 00:03:16 11° WSW 00:04:55 13° W 00:06:57 10° WNW visible
13 Jul 5.5 21:28:48 11° ESE 21:31:56 20° ENE 21:35:23 10° NNE visible
13 Jul 4.5 23:07:41 32° SSW 23:09:24 46° W 23:13:59 10° NNW visible
